NOAA 16 DEB

Satellite information

Favourite Embed

Satellite Type and Status

DEBRISIN ORBIT

Key statistics

Satellite NOAA 16 DEB at a glance.

Uptime

9215

Days in orbit

Revolutions

≈ 14.2

Per day

Orbit

SSO

Sun Synchronous Orbit

Inclination

98.7

Latest

Satellite identification and parameters

Extended collection of information and parameters for NOAA 16 DEB.

Object identification

Identified? True

Debris? True

Object name: NOAA 16 DEB

International designator: 2000-055PL

Object number (NORAD): 41706

Object ID (CCSDS): 41706

Country: UNITED STATES OF AMERICA (US)

Current information (Y/N): Y

RCS size: SMALL

Orbital parameters

Period: 101.718 minutes

Inclination: 98.6898 deg

SMA: 7218.141 km

Apoapsis: 864.225 km

Periapsis: 815.786 km

RAAN: 12.5912 deg

Eccentricy: 0.00335532

Argument of periapsis: 24.5102 deg

Mean anomaly: 335.7659 deg

Mean motion: 14.15678867 rev/day

Mean motion (dot): 0.00003574 rev/day2

B* drag term: 0.0018346015 1/REarth

Two-line elements (TLE)

Creation date: Dec. 10, 2025, 10:40 a.m.

Reference frame: TEME

Reference center: EARTH

Epoch: Dec. 10, 2025, 12:38 a.m. UTC

TLE line 0: 0 NOAA 16 DEB

TLE line 1: 1 41706U 00055PL 25344.02704398 .00003574 00000-0 18346-2 0 9992

TLE line 2: 2 41706 98.6898 12.5912 0033553 24.5102 335.7659 14.15678867502380

Live tracking on map

Real-time ground track for satellite NOAA 16 DEB.

In-orbit conjunctions

A list of the most updated potential collisions computed for object NOAA 16 DEB.

Target Orbit TCA Probability of collision Miss distance Type
COSMOS 1275 DEB LEO 2024-11-13 23:00:12 0.0001665659 336.0 (m) DEBRIS
DELTA 1 R/B SSO 2024-11-13 18:38:42 0.0003489296 282.0 (m) ROCKET BODY
THOR ABLESTAR DEB LEO 2024-11-13 09:26:21 0.0001034209 298.0 (m) DEBRIS

Associated space launch

The NOAA K, L and M POES satellites begin the fifth generation of improved environmental monitoring in support of NOAA missions. The instrument payload has significant improvements and additions/deletions. The instrument changes have effected the spacecraft subsystems and data formats.

NOAA 16 DEB was lifted into orbit during the mission ‘Titan II SLV | NOAA 16’, on board a Titan II SLV space rocket.

The launch took place on Sept. 21, 2000, 10:22 a.m. from Space Launch Complex 4W.

For more information about the launch, click the button.

Launch to space Titan II SLV | NOAA 16
Titan II SLV | NOAA 16

Agency: N/A

Status: Launch Successful

Launch date: Sept. 21, 2000, 10:22 a.m. UTC

Rocket: Titan II SLV

Launch pad: Space Launch Complex 4W

Location: Vandenberg SFB, CA, USA

...

Latest news about this satellite

There are no fresh news available about this satellite. Check back as we update our databases every day.


Newsletter sign-up

Weekly statistics, charts and insights to help you stay on top of the space industry.